Time,TemperatureF,DewpointF,PressureIn,WindDirection,WindDirectionDegrees,WindSpeedMPH,WindSpeedGustMPH,Humidity,HourlyPrecipIn,Conditions,Clouds,dailyrainin,SolarRadiationWatts/m^2,SoftwareType,DateUTC
2013-01-10 00:00:00,37.9,30.4,30.37,West,266,6.0,6.0,74,0.00,,OVC045,0.00,0.00,VWS V14.01,2013-01-10 05:00:00,
2013-01-10 00:02:00,37.9,30.0,30.37,West,262,4.0,4.0,73,0.00,,OVC045,0.00,0.00,VWS V14.01,2013-01-10 05:02:00,
2013-01-10 00:07:00,38.1,28.5,30.36,WSW,250,7.8,11.5,68,0.00,BKN,OVC,0.00,0.0,WeatherDisplay:10.37,2013-01-10 05:07:00,
2013-01-10 00:12:00,37.8,29.9,30.38,West,273,3.0,7.0,73,0.00,,OVC045,0.00,0.00,VWS V14.01,2013-01-10 05:12:00,
2013-01-10 00:17:00,38.0,28.4,30.36,WSW,250,7.9,11.5,68,0.00,BKN,OVC,0.00,0.0,WeatherDisplay:10.37,2013-01-10 05:17:00,
2013-01-10 00:22:00,37.7,29.8,30.38,WSW,255,6.0,6.0,73,0.00,,OVC045,0.00,0.00,VWS V14.01,2013-01-10 05:22:00,
2013-01-10 00:27:00,37.9,28.3,30.36,West,262,5.6,9.2,68,0.00,BKN,OVC,0.00,0.0,WeatherDisplay:10.37,2013-01-10 05:27:00,
2013-01-10 00:32:00,37.4,29.5,30.39,West,280,5.0,6.0,73,0.00,,BKN041,0.00,0.00,VWS V14.01,2013-01-10 05:32:00,
2013-01-10 00:37:00,37.3,29.5,30.39,West,277,4.0,5.0,73,0.00,,BKN041,0.00,0.00,VWS V14.01,2013-01-10 05:37:00,
2013-01-10 00:42:00,37.6,28.0,30.37,WSW,252,4.3,7.0,68,0.00,BKN,OVC,0.00,0.0,WeatherDisplay:10.37,2013-01-10 05:42:00,
2013-01-10 00:47:00,37.2,29.7,30.39,West,260,3.0,5.0,74,0.00,,BKN041,0.00,0.00,VWS V14.01,2013-01-10 05:47:00,
2013-01-10 00:52:00,37.1,29.6,30.39,West,261,5.0,5.0,74,0.00,,BKN041,0.00,0.00,VWS V14.01,2013-01-10 05:52:00,
2013-01-10 00:57:00,37.0,29.5,30.39,West,269,3.0,3.0,74,0.00,,BKN041,0.00,0.00,VWS V14.01,2013-01-10 05:57:00,
2013-01-10 01:02:00,36.8,29.3,30.39,West,271,4.0,4.0,74,0.00,,BKN041,0.00,0.00,VWS V14.01,2013-01-10 06:02:00,
2013-01-10 01:07:00,37.2,28.0,30.37,West,267,4.3,5.8,69,0.00,BKN,OVC,0.00,0.0,WeatherDisplay:10.37,2013-01-10 06:07:00,
2013-01-10 01:12:00,36.7,29.5,30.39,West,266,3.0,4.0,75,0.00,,BKN041,0.00,0.00,VWS V14.01,2013-01-10 06:12:00,
2013-01-10 01:17:00,36.6,29.4,30.39,WSW,258,3.0,3.0,75,0.00,,BKN041,0.00,0.00,VWS V14.01,2013-01-10 06:17:00,
2013-01-10 01:22:00,36.9,28.0,30.38,WSW,249,5.2,9.0,70,0.00,BKN,OVC,0.00,0.0,WeatherDisplay:10.37,2013-01-10 06:22:00,
2013-01-10 01:27:00,36.4,29.6,30.39,WSW,258,2.0,3.0,76,0.00,,BKN041,0.00,0.00,VWS V14.01,2013-01-10 06:27:00,
2013-01-10 01:32:00,36.3,29.5,30.40,West,261,3.0,3.0,76,0.00,,BKN039,0.00,0.00,VWS V14.01,2013-01-10 06:32:00,
2013-01-10 01:37:00,36.4,29.9,30.40,West,261,2.0,2.0,77,0.00,,BKN039,0.00,0.00,VWS V14.01,2013-01-10 06:37:00,
2013-01-10 01:42:00,36.6,28.4,30.38,WSW,246,5.8,9.2,72,0.00,BKN,OVC,0.00,0.0,WeatherDisplay:10.37,2013-01-10 06:42:00,
2013-01-10 01:47:00,36.7,28.5,30.39,WSW,254,5.8,7.0,72,0.00,BKN,OVC,0.00,0.0,WeatherDisplay:10.37,2013-01-10 06:47:00,
2013-01-10 01:52:00,36.3,29.8,30.40,WSW,253,3.0,3.0,77,0.00,,BKN039,0.00,0.00,VWS V14.01,2013-01-10 06:52:00,
2013-01-10 01:57:00,36.6,28.4,30.39,WSW,257,4.5,6.9,72,0.00,BKN,OVC,0.00,0.0,WeatherDisplay:10.37,2013-01-10 06:57:00,
2013-01-10 02:02:00,36.2,30.0,30.40,West,277,2.0,2.0,78,0.00,,BKN039,0.00,0.00,VWS V14.01,2013-01-10 07:02:00,
2013-01-10 02:07:00,36.5,28.3,30.39,West,259,1.6,3.5,72,0.00,BKN,OVC,0.00,0.0,WeatherDisplay:10.37,2013-01-10 07:07:00,
2013-01-10 02:12:00,36.1,29.9,30.41,West,272,3.0,4.0,78,0.00,,BKN039,0.00,0.00,VWS V14.01,2013-01-10 07:12:00,
2013-01-10 02:17:00,36.4,28.6,30.40,West,259,4.3,5.8,73,0.00,BKN,OVC,0.00,0.0,WeatherDisplay:10.37,2013-01-10 07:17:00,
2013-01-10 02:22:00,36.0,29.8,30.42,West,264,3.0,3.0,78,0.00,,BKN039,0.00,0.00,VWS V14.01,2013-01-10 07:22:00,
2013-01-10 02:27:00,36.3,28.5,30.41,West,259,3.5,5.8,73,0.00,BKN,OVC,0.00,0.0,WeatherDisplay:10.37,2013-01-10 07:27:00,
2013-01-10 02:32:00,36.1,29.9,30.42,West,264,2.0,3.0,78,0.00,,BKN036,0.00,0.00,VWS V14.01,2013-01-10 07:32:00,
2013-01-10 02:37:00,36.2,30.0,30.43,WNW,285,2.0,2.0,78,0.00,,BKN036,0.00,0.00,VWS V14.01,2013-01-10 07:37:00,
2013-01-10 02:42:00,36.3,30.1,30.43,West,269,2.0,2.0,78,0.00,,BKN036,0.00,0.00,VWS V14.01,2013-01-10 07:42:00,
2013-01-10 02:47:00,36.3,30.4,30.43,West,272,2.0,3.0,79,0.00,,BKN036,0.00,0.00,VWS V14.01,2013-01-10 07:47:00,
2013-01-10 02:52:00,36.4,28.9,30.42,WSW,255,4.1,5.8,74,0.00,BKN,OVC,0.00,0.0,WeatherDisplay:10.37,2013-01-10 07:52:00,
2013-01-10 02:57:00,36.2,30.6,30.44,West,267,2.0,3.0,80,0.00,,BKN036,0.00,0.00,VWS V14.01,2013-01-10 07:57:00,
2013-01-10 03:02:00,36.5,29.0,30.43,WSW,252,3.2,8.1,74,0.00,BKN,OVC,0.00,0.0,WeatherDisplay:10.37,2013-01-10 08:02:00,
2013-01-10 03:07:00,36.4,30.5,30.45,WNW,288,3.0,4.0,79,0.00,,BKN036,0.00,0.00,VWS V14.01,2013-01-10 08:07:00,
2013-01-10 03:12:00,36.5,30.6,30.45,West,271,2.0,4.0,79,0.00,,BKN036,0.00,0.00,VWS V14.01,2013-01-10 08:12:00,
2013-01-10 03:17:00,36.6,29.1,30.43,WSW,253,5.4,6.9,74,0.00,BKN,OVC,0.00,0.0,WeatherDisplay:10.37,2013-01-10 08:17:00,
2013-01-10 03:22:00,36.4,30.5,30.45,WNW,288,3.0,3.0,79,0.00,,BKN036,0.00,0.00,VWS V14.01,2013-01-10 08:22:00,
2013-01-10 03:27:00,36.4,30.5,30.45,West,271,3.0,3.0,79,0.00,,BKN036,0.00,0.00,VWS V14.01,2013-01-10 08:27:00,
2013-01-10 03:32:00,36.6,29.1,30.43,WSW,250,3.3,4.6,74,0.00,BKN,OVC,0.00,0.0,WeatherDisplay:10.37,2013-01-10 08:32:00,
2013-01-10 03:37:00,36.3,30.4,30.45,West,270,5.0,5.0,79,0.00,,BKN036,0.00,0.00,VWS V14.01,2013-01-10 08:37:00,
2013-01-10 03:42:00,36.3,30.4,30.45,West,273,5.0,6.0,79,0.00,,BKN036,0.00,0.00,VWS V14.01,2013-01-10 08:42:00,
2013-01-10 03:47:00,36.4,30.5,30.45,West,280,3.0,4.0,79,0.00,,BKN036,0.00,0.00,VWS V14.01,2013-01-10 08:47:00,
2013-01-10 03:52:00,36.4,30.5,30.45,West,267,5.0,5.0,79,0.00,,BKN036,0.00,0.00,VWS V14.01,2013-01-10 08:52:00,
2013-01-10 03:57:00,36.4,30.5,30.45,WNW,296,4.0,5.0,79,0.00,,BKN036,0.00,0.00,VWS V14.01,2013-01-10 08:57:00,
2013-01-10 04:02:00,36.5,29.0,30.44,West,270,3.0,5.8,74,0.00,BKN,OVC,0.00,0.0,WeatherDisplay:10.37,2013-01-10 09:02:00,
2013-01-10 04:07:00,36.2,30.6,30.46,West,279,2.0,3.0,80,0.00,,BKN036,0.00,0.00,VWS V14.01,2013-01-10 09:07:00,
2013-01-10 04:12:00,36.1,30.5,30.46,WNW,289,2.0,3.0,80,0.00,,BKN036,0.00,0.00,VWS V14.01,2013-01-10 09:12:00,
2013-01-10 04:17:00,36.1,30.5,30.46,West,275,3.0,3.0,80,0.00,,BKN036,0.00,0.00,VWS V14.01,2013-01-10 09:17:00,
2013-01-10 04:22:00,36.2,29.0,30.44,West,266,2.1,5.8,75,0.00,BKN,OVC,0.00,0.0,WeatherDisplay:10.37,2013-01-10 09:22:00,
2013-01-10 04:27:00,36.1,30.5,30.46,West,279,3.0,4.0,80,0.00,,BKN036,0.00,0.00,VWS V14.01,2013-01-10 09:27:00,
2013-01-10 04:32:00,36.1,30.5,30.46,West,275,3.0,3.0,80,0.00,,BKN036,0.00,0.00,VWS V14.01,2013-01-10 09:32:00,
2013-01-10 04:37:00,36.0,30.4,30.46,West,271,2.0,3.0,80,0.00,,BKN250,0.00,0.00,VWS V14.01,2013-01-10 09:37:00,
2013-01-10 04:42:00,35.9,30.3,30.46,West,273,5.0,5.0,80,0.00,,BKN250,0.00,0.00,VWS V14.01,2013-01-10 09:42:00,
2013-01-10 04:47:00,35.8,30.2,30.46,WNW,296,4.0,6.0,80,0.00,,BKN250,0.00,0.00,VWS V14.01,2013-01-10 09:47:00,
2013-01-10 04:52:00,36.0,28.8,30.45,West,275,3.1,5.0,75,0.00,BKN,OVC,0.00,0.0,WeatherDisplay:10.37,2013-01-10 09:52:00,
2013-01-10 04:57:00,35.6,30.4,30.47,West,281,4.0,4.0,81,0.00,,BKN250,0.00,0.00,VWS V14.01,2013-01-10 09:57:00,
2013-01-10 05:02:00,35.7,28.9,30.45,WNW,288,5.4,6.0,76,0.00,BKN,OVC,0.00,0.0,WeatherDisplay:10.37,2013-01-10 10:02:00,
2013-01-10 05:07:00,35.5,30.3,30.47,West,281,3.0,5.0,81,0.00,,BKN250,0.00,0.00,VWS V14.01,2013-01-10 10:07:00,
2013-01-10 05:12:00,35.6,28.8,30.46,West,268,1.4,3.5,76,0.00,BKN,OVC,0.00,0.0,WeatherDisplay:10.37,2013-01-10 10:12:00,
2013-01-10 05:17:00,35.1,29.9,30.48,West,270,3.0,3.0,81,0.00,,BKN250,0.00,0.00,VWS V14.01,2013-01-10 10:17:00,
2013-01-10 05:22:00,35.1,30.2,30.48,West,279,1.0,3.0,82,0.00,,BKN250,0.00,0.00,VWS V14.01,2013-01-10 10:22:00,
2013-01-10 05:27:00,35.0,30.1,30.48,West,278,2.0,2.0,82,0.00,,BKN250,0.00,0.00,VWS V14.01,2013-01-10 10:27:00,
2013-01-10 05:32:00,35.1,28.6,30.47,West,268,3.3,4.6,77,0.00,BKN,OVC,0.00,0.0,WeatherDisplay:10.37,2013-01-10 10:32:00,
2013-01-10 05:37:00,34.8,30.2,30.48,West,278,2.0,2.0,83,0.00,,BKN250,0.00,0.00,VWS V14.01,2013-01-10 10:37:00,
2013-01-10 05:42:00,35.0,28.8,30.47,West,268,1.1,3.5,78,0.00,BKN,OVC,0.00,0.0,WeatherDisplay:10.37,2013-01-10 10:42:00,
2013-01-10 05:47:00,34.8,30.2,30.49,West,278,1.0,1.0,83,0.00,,BKN250,0.00,0.00,VWS V14.01,2013-01-10 10:47:00,
2013-01-10 05:52:00,34.7,30.1,30.49,West,278,0.0,1.0,83,0.00,,BKN250,0.00,0.00,VWS V14.01,2013-01-10 10:52:00,
2013-01-10 05:57:00,34.2,30.2,30.50,West,278,1.0,2.0,85,0.00,,BKN250,0.00,0.00,VWS V14.01,2013-01-10 10:57:00,
2013-01-10 06:02:00,34.8,28.6,30.48,West,268,1.2,3.5,78,0.00,BKN,OVC,0.00,0.0,WeatherDisplay:10.37,2013-01-10 11:02:00,
2013-01-10 06:07:00,34.7,28.5,30.48,West,268,1.5,2.3,78,0.00,BKN,OVC,0.00,0.0,WeatherDisplay:10.37,2013-01-10 11:07:00,
2013-01-10 06:12:00,33.3,29.6,30.50,West,278,0.0,0.0,86,0.00,,BKN250,0.00,0.00,VWS V14.01,2013-01-10 11:12:00,
2013-01-10 06:17:00,34.6,28.4,30.49,West,268,2.1,4.6,78,0.00,BKN,OVC,0.00,0.0,WeatherDisplay:10.37,2013-01-10 11:17:00,
2013-01-10 06:22:00,33.8,29.8,30.50,West,278,1.0,1.0,85,0.00,,BKN250,0.00,0.00,VWS V14.01,2013-01-10 11:22:00,
2013-01-10 06:27:00,33.4,29.1,30.51,West,278,0.0,0.0,84,0.00,,BKN250,0.00,0.00,VWS V14.01,2013-01-10 11:27:00,
2013-01-10 06:32:00,32.8,29.1,30.51,West,278,0.0,0.0,86,0.00,,BKN250,0.00,0.00,VWS V14.01,2013-01-10 11:32:00,
2013-01-10 06:37:00,34.3,27.8,30.50,West,268,0.9,2.3,77,0.00,BKN,OVC,0.00,0.0,WeatherDisplay:10.37,2013-01-10 11:37:00,
2013-01-10 06:42:00,31.8,28.4,30.51,West,278,0.0,0.0,87,0.00,,BKN250,0.00,0.00,VWS V14.01,2013-01-10 11:42:00,
2013-01-10 06:47:00,31.6,28.2,30.51,West,278,0.0,0.0,87,0.00,,BKN250,0.00,0.00,VWS V14.01,2013-01-10 11:47:00,
2013-01-10 06:52:00,33.7,27.6,30.50,West,268,0.1,0.0,78,0.00,BKN,OVC,0.00,0.0,WeatherDisplay:10.37,2013-01-10 11:52:00,
2013-01-10 06:57:00,31.0,27.9,30.52,West,278,0.0,0.0,88,0.00,,BKN250,0.00,0.00,VWS V14.01,2013-01-10 11:57:00,
2013-01-10 07:02:00,30.8,27.7,30.52,West,278,0.0,0.0,88,0.00,,BKN250,0.00,0.00,VWS V14.01,2013-01-10 12:02:00,
2013-01-10 07:07:00,30.6,27.8,30.52,West,278,0.0,0.0,89,0.00,,BKN250,0.00,0.00,VWS V14.01,2013-01-10 12:07:00,
2013-01-10 07:12:00,30.3,27.5,30.53,West,278,0.0,0.0,89,0.00,,BKN250,0.00,0.00,VWS V14.01,2013-01-10 12:12:00,
2013-01-10 07:17:00,32.7,26.9,30.52,West,268,0.0,0.0,79,0.00,BKN,OVC,0.00,0.0,WeatherDisplay:10.37,2013-01-10 12:17:00,
2013-01-10 07:22:00,30.0,27.4,30.53,West,278,0.0,0.0,90,0.00,,BKN250,0.00,0.00,VWS V14.01,2013-01-10 12:22:00,
2013-01-10 07:27:00,32.3,26.5,30.53,West,268,0.0,0.0,79,0.00,BKN,OVC,0.00,0.0,WeatherDisplay:10.37,2013-01-10 12:27:00,
2013-01-10 07:32:00,29.6,27.0,30.54,West,278,0.0,0.0,90,0.00,,BKN250,0.00,0.00,VWS V14.01,2013-01-10 12:32:00,
2013-01-10 07:37:00,29.4,26.8,30.54,West,278,0.0,0.0,90,0.00,,BKN250,0.00,0.00,VWS V14.01,2013-01-10 12:37:00,
2013-01-10 07:41:00,31.6,26.1,30.53,West,268,0.4,1.1,80,0.00,BKN,OVC,0.00,0.0,WeatherDisplay:10.37,2013-01-10 12:41:00,
2013-01-10 07:46:00,29.0,26.7,30.55,West,278,0.0,0.0,91,0.00,,BKN250,0.00,5.00,VWS V14.01,2013-01-10 12:46:00,
2013-01-10 07:51:00,28.9,26.6,30.56,West,278,0.0,0.0,91,0.00,,BKN250,0.00,9.00,VWS V14.01,2013-01-10 12:51:00,
2013-01-10 07:56:00,29.0,27.0,30.56,West,278,0.0,0.0,92,0.00,,BKN250,0.00,12.00,VWS V14.01,2013-01-10 12:56:00,
2013-01-10 08:01:00,31.1,26.2,30.54,West,268,0.0,0.0,82,0.00,FEW,OVC,0.00,14.0,WeatherDisplay:10.37,2013-01-10 13:01:00,
2013-01-10 08:06:00,28.7,26.7,30.56,West,278,0.0,0.0,92,0.00,,BKN250,0.00,18.00,VWS V14.01,2013-01-10 13:06:00,
2013-01-10 08:11:00,28.9,26.9,30.57,West,278,0.0,0.0,92,0.00,,BKN250,0.00,21.00,VWS V14.01,2013-01-10 13:11:00,
2013-01-10 08:16:00,30.8,26.2,30.56,West,268,1.8,3.5,83,0.00,SCT,OVC,0.00,28.0,WeatherDisplay:10.37,2013-01-10 13:16:00,
2013-01-10 08:21:00,29.3,27.5,30.58,West,278,1.0,1.0,93,0.00,,BKN250,0.00,44.00,VWS V14.01,2013-01-10 13:21:00,
2013-01-10 08:26:00,30.8,26.2,30.56,West,268,0.6,2.3,83,0.00,SCT,OVC,0.00,46.0,WeatherDisplay:10.37,2013-01-10 13:26:00,
2013-01-10 08:31:00,30.2,28.2,30.59,West,278,1.0,1.0,92,0.00,,BKN250,0.00,54.00,VWS V14.01,2013-01-10 13:31:00,
2013-01-10 08:36:00,30.8,28.8,30.59,West,278,1.0,1.0,92,0.00,,BKN250,0.00,51.00,VWS V14.01,2013-01-10 13:36:00,
2013-01-10 08:41:00,31.2,26.9,30.57,West,268,0.5,2.3,84,0.00,FEW,OVC,0.00,72.0,WeatherDisplay:10.37,2013-01-10 13:41:00,
2013-01-10 08:46:00,31.8,28.9,30.59,West,275,0.0,1.0,89,0.00,,BKN250,0.00,93.00,VWS V14.01,2013-01-10 13:46:00,
2013-01-10 08:51:00,32.4,29.2,30.59,West,275,0.0,0.0,88,0.00,,BKN250,0.00,102.00,VWS V14.01,2013-01-10 13:51:00,
2013-01-10 08:56:00,32.7,29.3,30.59,West,275,1.0,1.0,87,0.00,,BKN250,0.00,132.00,VWS V14.01,2013-01-10 13:56:00,
2013-01-10 09:01:00,33.0,29.3,30.59,West,275,0.0,0.0,86,0.00,,BKN250,0.00,127.00,VWS V14.01,2013-01-10 14:01:00,
2013-01-10 09:06:00,33.3,29.3,30.59,West,275,0.0,0.0,85,0.00,,BKN250,0.00,132.00,VWS V14.01,2013-01-10 14:06:00,
2013-01-10 09:11:00,33.6,29.6,30.59,West,275,0.0,1.0,85,0.00,,BKN250,0.00,151.00,VWS V14.01,2013-01-10 14:11:00,
2013-01-10 09:16:00,33.8,29.5,30.59,West,275,1.0,2.0,84,0.00,,BKN250,0.00,144.00,VWS V14.01,2013-01-10 14:16:00,
2013-01-10 09:21:00,33.2,28.3,30.58,West,268,0.9,3.5,82,0.00,FEW,OVC,0.00,132.0,WeatherDisplay:10.37,2013-01-10 14:21:00,
2013-01-10 09:26:00,34.4,29.8,30.59,West,275,0.0,0.0,83,0.00,,BKN250,0.00,185.00,VWS V14.01,2013-01-10 14:26:00,
2013-01-10 09:31:00,33.8,28.6,30.58,West,268,1.6,2.3,81,0.00,CLR,OVC,0.00,174.0,WeatherDisplay:10.37,2013-01-10 14:31:00,
2013-01-10 09:36:00,35.0,29.8,30.59,West,275,2.0,2.0,81,0.00,,BKN250,0.00,195.00,VWS V14.01,2013-01-10 14:36:00,
2013-01-10 09:41:00,34.4,28.9,30.58,West,268,0.8,3.5,80,0.00,CLR,OVC,0.00,199.0,WeatherDisplay:10.37,2013-01-10 14:41:00,
2013-01-10 09:46:00,34.7,28.9,30.58,West,268,1.9,3.5,79,0.00,CLR,OVC,0.00,206.0,WeatherDisplay:10.37,2013-01-10 14:46:00,
2013-01-10 09:51:00,35.6,30.0,30.60,West,275,1.0,1.0,80,0.00,,BKN250,0.00,274.00,VWS V14.01,2013-01-10 14:51:00,
2013-01-10 09:56:00,35.4,28.6,30.58,West,268,0.8,4.0,76,0.00,CLR,OVC,0.00,250.0,WeatherDisplay:10.37,2013-01-10 14:56:00,
2013-01-10 10:01:00,36.2,29.7,30.59,West,272,2.0,2.0,77,0.00,,BKN250,0.00,294.00,VWS V14.01,2013-01-10 15:01:00,
2013-01-10 10:06:00,36.4,29.6,30.59,West,272,1.0,2.0,76,0.00,,BKN250,0.00,309.00,VWS V14.01,2013-01-10 15:06:00,
2013-01-10 10:11:00,36.3,28.5,30.57,West,268,2.1,3.5,73,0.00,CLR,OVC,0.00,269.0,WeatherDisplay:10.37,2013-01-10 15:11:00,
2013-01-10 10:16:00,36.9,30.0,30.59,West,272,2.0,2.0,76,0.00,,BKN250,0.00,311.00,VWS V14.01,2013-01-10 15:16:00,
2013-01-10 10:21:00,37.2,29.4,30.59,NNW,337,1.0,2.0,73,0.00,,BKN250,0.00,334.00,VWS V14.01,2013-01-10 15:21:00,
2013-01-10 10:26:00,37.1,28.2,30.57,West,268,1.9,3.5,70,0.00,CLR,OVC,0.00,304.0,WeatherDisplay:10.37,2013-01-10 15:26:00,
2013-01-10 10:31:00,37.8,29.9,30.59,West,277,1.0,1.0,73,0.00,,SCT250,0.00,350.00,VWS V14.01,2013-01-10 15:31:00,
2013-01-10 10:36:00,37.8,28.5,30.57,West,268,1.8,3.5,69,0.00,CLR,OVC,0.00,329.0,WeatherDisplay:10.37,2013-01-10 15:36:00,
2013-01-10 10:41:00,38.2,28.6,30.57,West,268,2.5,3.5,68,0.00,CLR,OVC,0.00,339.0,WeatherDisplay:10.37,2013-01-10 15:41:00,
2013-01-10 10:46:00,38.2,29.6,30.58,NW,309,2.0,2.0,71,0.00,,SCT250,0.00,390.00,VWS V14.01,2013-01-10 15:46:00,
2013-01-10 10:51:00,38.9,28.1,30.57,West,269,2.4,3.5,65,0.00,CLR,OVC,0.00,345.0,WeatherDisplay:10.37,2013-01-10 15:51:00,
2013-01-10 10:56:00,38.4,28.8,30.58,NW,321,4.0,4.0,68,0.00,,SCT250,0.00,410.00,VWS V14.01,2013-01-10 15:56:00,
2013-01-10 11:01:00,38.6,29.0,30.57,West,267,0.0,1.0,68,0.00,,SCT250,0.00,418.00,VWS V14.01,2013-01-10 16:01:00,
2013-01-10 11:06:00,39.5,27.9,30.56,WNW,283,1.9,3.5,63,0.00,CLR,OVC,0.00,374.0,WeatherDisplay:10.37,2013-01-10 16:06:00,
2013-01-10 11:11:00,39.1,29.8,30.57,West,267,1.0,2.0,69,0.00,,SCT250,0.00,445.00,VWS V14.01,2013-01-10 16:11:00,
2013-01-10 11:16:00,39.2,29.2,30.57,West,267,0.0,0.0,67,0.00,,SCT250,0.00,454.00,VWS V14.01,2013-01-10 16:16:00,
2013-01-10 11:21:00,39.2,28.8,30.57,West,269,2.0,2.0,66,0.00,,SCT250,0.00,457.00,VWS V14.01,2013-01-10 16:21:00,
2013-01-10 11:26:00,40.4,28.0,30.55,West,279,3.8,4.6,61,0.00,CLR,OVC,0.00,397.0,WeatherDisplay:10.37,2013-01-10 16:26:00,
2013-01-10 11:31:00,40.5,27.7,30.55,West,279,1.7,3.5,60,0.00,CLR,OVC,0.00,401.0,WeatherDisplay:10.37,2013-01-10 16:31:00,
2013-01-10 11:36:00,39.8,29.0,30.56,South,184,0.0,1.0,65,0.00,,SCT250,0.00,469.00,VWS V14.01,2013-01-10 16:36:00,
2013-01-10 11:41:00,41.0,27.8,30.55,West,279,2.7,4.0,59,0.00,CLR,OVC,0.00,401.0,WeatherDisplay:10.37,2013-01-10 16:41:00,
2013-01-10 11:46:00,41.2,27.9,30.54,West,265,5.4,9.0,59,0.00,CLR,OVC,0.00,410.0,WeatherDisplay:10.37,2013-01-10 16:46:00,
2013-01-10 11:51:00,40.0,28.8,30.56,WNW,288,3.0,3.0,64,0.00,,SCT250,0.00,476.00,VWS V14.01,2013-01-10 16:51:00,
2013-01-10 11:56:00,41.2,27.5,30.54,WSW,258,3.4,4.6,58,0.00,CLR,OVC,0.00,411.0,WeatherDisplay:10.37,2013-01-10 16:56:00,
2013-01-10 12:01:00,39.8,28.6,30.55,SW,231,2.0,2.0,64,0.00,,SCT250,0.00,478.00,VWS V14.01,2013-01-10 17:01:00,
2013-01-10 12:06:00,41.5,27.8,30.54,WSW,255,4.1,5.8,58,0.00,CLR,OVC,0.00,413.0,WeatherDisplay:10.37,2013-01-10 17:06:00,
2013-01-10 12:11:00,40.4,28.8,30.55,SSW,211,2.0,3.0,63,0.00,,SCT250,0.00,485.00,VWS V14.01,2013-01-10 17:11:00,
2013-01-10 12:16:00,41.8,28.1,30.54,WSW,249,3.2,4.6,58,0.00,CLR,OVC,0.00,420.0,WeatherDisplay:10.37,2013-01-10 17:16:00,
2013-01-10 12:21:00,40.6,29.4,30.55,West,264,1.0,1.0,64,0.00,,SCT250,0.00,489.00,VWS V14.01,2013-01-10 17:21:00,
2013-01-10 12:26:00,40.4,30.0,30.55,SSW,197,6.0,6.0,66,0.00,,SCT250,0.00,489.00,VWS V14.01,2013-01-10 17:26:00,
2013-01-10 12:31:00,40.2,29.0,30.54,WNW,292,5.0,5.0,64,0.00,,SCT250,0.00,492.00,VWS V14.01,2013-01-10 17:31:00,
2013-01-10 12:36:00,41.6,27.5,30.52,West,264,3.9,8.1,57,0.00,CLR,OVC,0.00,420.0,WeatherDisplay:10.37,2013-01-10 17:36:00,
2013-01-10 12:41:00,40.0,28.8,30.53,West,280,3.0,3.0,64,0.00,,BKN250,0.00,494.00,VWS V14.01,2013-01-10 17:41:00,
2013-01-10 12:46:00,40.2,29.4,30.53,West,269,0.0,0.0,65,0.00,,BKN250,0.00,494.00,VWS V14.01,2013-01-10 17:46:00,
2013-01-10 12:51:00,41.6,27.1,30.52,SW,235,6.6,8.1,56,0.00,CLR,OVC,0.00,425.0,WeatherDisplay:10.37,2013-01-10 17:51:00,
2013-01-10 12:56:00,40.7,28.7,30.53,SW,228,2.0,2.0,62,0.00,,BKN250,0.00,461.00,VWS V14.01,2013-01-10 17:56:00,
2013-01-10 13:01:00,41.8,27.7,30.51,SW,234,2.2,3.5,57,0.00,CLR,OVC,0.00,355.0,WeatherDisplay:10.37,2013-01-10 18:01:00,
2013-01-10 13:06:00,39.7,28.9,30.52,West,265,2.0,2.0,65,0.00,,BKN250,0.00,330.00,VWS V14.01,2013-01-10 18:06:00,
2013-01-10 13:11:00,41.5,27.0,30.51,WSW,252,6.1,9.2,56,0.00,FEW,OVC,0.00,403.0,WeatherDisplay:10.37,2013-01-10 18:11:00,
2013-01-10 13:16:00,39.9,29.1,30.53,WSW,250,2.0,3.0,65,0.00,,BKN250,0.00,338.00,VWS V14.01,2013-01-10 18:16:00,
2013-01-10 13:21:00,39.7,28.5,30.53,WSW,244,3.0,3.0,64,0.00,,BKN250,0.00,186.00,VWS V14.01,2013-01-10 18:21:00,
2013-01-10 13:26:00,39.3,28.5,30.53,WSW,244,2.0,2.0,65,0.00,,BKN250,0.00,390.00,VWS V14.01,2013-01-10 18:26:00,
2013-01-10 13:31:00,40.5,26.9,30.51,WSW,248,3.2,4.6,58,0.00,CLR,OVC,0.00,346.0,WeatherDisplay:10.37,2013-01-10 18:31:00,
2013-01-10 13:36:00,40.1,28.9,30.53,West,263,1.0,4.0,64,0.00,,BKN250,0.00,394.00,VWS V14.01,2013-01-10 18:36:00,
2013-01-10 13:41:00,39.7,28.5,30.53,WNW,292,4.0,5.0,64,0.00,,SCT250,0.00,279.00,VWS V14.01,2013-01-10 18:41:00,
2013-01-10 13:46:00,40.6,27.0,30.52,WSW,255,5.5,8.1,58,0.00,CLR,OVC,0.00,366.0,WeatherDisplay:10.37,2013-01-10 18:46:00,
2013-01-10 13:51:00,39.9,28.7,30.53,WSW,254,1.0,2.0,64,0.00,,SCT250,0.00,483.00,VWS V14.01,2013-01-10 18:51:00,
2013-01-10 13:56:00,40.9,27.2,30.52,WSW,258,4.1,6.0,58,0.00,CLR,OVC,0.00,420.0,WeatherDisplay:10.37,2013-01-10 18:56:00,
2013-01-10 14:01:00,41.2,27.5,30.51,WSW,258,3.8,4.6,58,0.00,CLR,OVC,0.00,406.0,WeatherDisplay:10.37,2013-01-10 19:01:00,
2013-01-10 14:06:00,40.0,29.2,30.53,WNW,288,5.0,5.0,65,0.00,,SCT250,0.00,410.00,VWS V14.01,2013-01-10 19:06:00,
2013-01-10 14:11:00,39.8,28.6,30.53,West,279,2.0,3.0,64,0.00,,SCT250,0.00,257.00,VWS V14.01,2013-01-10 19:11:00,
2013-01-10 14:16:00,40.0,28.8,30.53,West,277,2.0,3.0,64,0.00,,SCT250,0.00,424.00,VWS V14.01,2013-01-10 19:16:00,
2013-01-10 14:21:00,41.4,27.3,30.51,WSW,258,5.0,5.8,57,0.00,CLR,OVC,0.00,401.0,WeatherDisplay:10.37,2013-01-10 19:21:00,
2013-01-10 14:26:00,40.5,29.7,30.53,West,271,2.0,3.0,65,0.00,,SCT250,0.00,436.00,VWS V14.01,2013-01-10 19:26:00,
2013-01-10 14:31:00,40.6,29.8,30.53,WNW,282,2.0,3.0,65,0.00,,SCT250,0.00,369.00,VWS V14.01,2013-01-10 19:31:00,
2013-01-10 14:36:00,40.5,28.5,30.53,WSW,250,1.0,1.0,62,0.00,,SCT250,0.00,352.00,VWS V14.01,2013-01-10 19:36:00,
2013-01-10 14:41:00,40.5,28.9,30.53,WNW,294,2.0,3.0,63,0.00,,BKN250,0.00,364.00,VWS V14.01,2013-01-10 19:41:00,
2013-01-10 14:46:00,40.7,29.1,30.53,West,261,2.0,2.0,63,0.00,,BKN250,0.00,339.00,VWS V14.01,2013-01-10 19:46:00,
2013-01-10 14:51:00,40.7,28.7,30.52,West,265,2.0,3.0,62,0.00,,BKN250,0.00,345.00,VWS V14.01,2013-01-10 19:51:00,
2013-01-10 14:56:00,40.4,29.2,30.52,WNW,296,2.0,2.0,64,0.00,,BKN250,0.00,325.00,VWS V14.01,2013-01-10 19:56:00,
2013-01-10 15:01:00,42.3,27.7,30.51,West,259,2.8,4.6,56,0.00,CLR,OVC,0.00,255.0,WeatherDisplay:10.37,2013-01-10 20:01:00,
2013-01-10 15:06:00,40.2,29.0,30.52,WNW,283,3.0,3.0,64,0.00,,BKN250,0.00,236.00,VWS V14.01,2013-01-10 20:06:00,
2013-01-10 15:11:00,42.1,27.1,30.50,West,259,0.1,3.5,55,0.00,CLR,OVC,0.00,141.0,WeatherDisplay:10.37,2013-01-10 20:11:00,
2013-01-10 15:16:00,39.7,28.5,30.52,WNW,291,2.0,2.0,64,0.00,,BKN250,0.00,174.00,VWS V14.01,2013-01-10 20:16:00,
2013-01-10 15:21:00,41.9,27.3,30.50,West,261,1.1,4.6,56,0.00,CLR,OVC,0.00,165.0,WeatherDisplay:10.37,2013-01-10 20:21:00,
2013-01-10 15:26:00,41.7,26.7,30.50,West,269,1.1,3.5,55,0.00,CLR,OVC,0.00,185.0,WeatherDisplay:10.37,2013-01-10 20:26:00,
2013-01-10 15:31:00,39.6,28.1,30.51,NW,321,2.0,2.0,63,0.00,,BKN250,0.00,104.00,VWS V14.01,2013-01-10 20:31:00,
2013-01-10 15:36:00,41.6,26.6,30.50,West,270,1.4,3.5,55,0.00,CLR,OVC,0.00,118.0,WeatherDisplay:10.37,2013-01-10 20:36:00,
2013-01-10 15:41:00,39.2,28.4,30.51,WNW,284,3.0,3.0,65,0.00,,BKN250,0.00,100.00,VWS V14.01,2013-01-10 20:41:00,
2013-01-10 15:46:00,41.3,26.8,30.50,West,270,0.1,1.1,56,0.00,SCT,OVC,0.00,95.0,WeatherDisplay:10.37,2013-01-10 20:46:00,
2013-01-10 15:51:00,41.1,26.6,30.50,West,270,0.4,3.5,56,0.00,SCT,OVC,0.00,74.0,WeatherDisplay:10.37,2013-01-10 20:51:00,
2013-01-10 15:56:00,39.0,27.5,30.52,NW,304,2.0,2.0,63,0.00,,BKN250,0.00,49.00,VWS V14.01,2013-01-10 20:56:00,
2013-01-10 16:01:00,40.6,26.1,30.50,West,270,0.7,3.5,56,0.00,BKN,OVC,0.00,39.0,WeatherDisplay:10.37,2013-01-10 21:01:00,
2013-01-10 16:06:00,37.9,27.9,30.52,NW,304,1.0,1.0,67,0.00,,BKN250,0.00,37.00,VWS V14.01,2013-01-10 21:06:00,
2013-01-10 16:11:00,37.8,27.8,30.52,NW,304,2.0,2.0,67,0.00,,BKN250,0.00,35.00,VWS V14.01,2013-01-10 21:11:00,
2013-01-10 16:16:00,39.7,26.1,30.50,West,270,0.0,0.0,58,0.00,BKN,OVC,0.00,32.0,WeatherDisplay:10.37,2013-01-10 21:16:00,
2013-01-10 16:21:00,36.8,28.0,30.51,NW,304,0.0,0.0,70,0.00,,BKN250,0.00,30.00,VWS V14.01,2013-01-10 21:21:00,
2013-01-10 16:26:00,36.5,27.7,30.51,NW,304,0.0,0.0,70,0.00,,BKN250,0.00,26.00,VWS V14.01,2013-01-10 21:26:00,
2013-01-10 16:31:00,36.1,27.6,30.51,NW,304,0.0,0.0,71,0.00,,BKN250,0.00,25.00,VWS V14.01,2013-01-10 21:31:00,
2013-01-10 16:36:00,36.1,27.3,30.50,NW,304,0.0,0.0,70,0.00,,BKN250,0.00,19.00,VWS V14.01,2013-01-10 21:36:00,
2013-01-10 16:41:00,35.7,26.9,30.50,NW,304,0.0,0.0,70,0.00,,BKN250,0.00,14.00,VWS V14.01,2013-01-10 21:41:00,
2013-01-10 16:46:00,35.4,27.0,30.51,NW,304,0.0,0.0,71,0.00,,BKN250,0.00,11.00,VWS V14.01,2013-01-10 21:46:00,
2013-01-10 16:51:00,34.8,26.7,30.50,NW,304,0.0,0.0,72,0.00,,BKN250,0.00,7.00,VWS V14.01,2013-01-10 21:51:00,
2013-01-10 16:56:00,34.4,26.7,30.50,NW,304,0.0,0.0,73,0.00,,BKN250,0.00,0.00,VWS V14.01,2013-01-10 21:56:00,
2013-01-10 17:01:00,37.5,25.3,30.49,West,270,0.0,0.0,61,0.00,BKN,OVC,0.00,0.0,WeatherDisplay:10.37,2013-01-10 22:01:00,
2013-01-10 17:06:00,33.5,27.1,30.50,NW,304,0.0,0.0,77,0.00,,BKN250,0.00,0.00,VWS V14.01,2013-01-10 22:06:00,
2013-01-10 17:11:00,33.1,26.0,30.51,NW,304,0.0,0.0,75,0.00,,BKN250,0.00,0.00,VWS V14.01,2013-01-10 22:11:00,
2013-01-10 17:16:00,36.7,24.9,30.49,West,270,0.0,0.0,62,0.00,BKN,OVC,0.00,0.0,WeatherDisplay:10.37,2013-01-10 22:16:00,
2013-01-10 17:21:00,32.5,26.7,30.52,NW,304,0.0,0.0,79,0.00,,BKN250,0.00,0.00,VWS V14.01,2013-01-10 22:21:00,
2013-01-10 17:26:00,32.4,26.9,30.52,NW,304,0.0,0.0,80,0.00,,BKN250,0.00,0.00,VWS V14.01,2013-01-10 22:26:00,
2013-01-10 17:31:00,35.9,24.9,30.50,West,270,0.0,0.0,64,0.00,BKN,OVC,0.00,0.0,WeatherDisplay:10.37,2013-01-10 22:31:00,
2013-01-10 17:36:00,35.5,24.9,30.50,West,270,0.0,0.0,65,0.00,BKN,OVC,0.00,0.0,WeatherDisplay:10.37,2013-01-10 22:36:00,
2013-01-10 17:41:00,32.1,26.6,30.51,NW,304,0.0,0.0,80,0.00,,BKN250,0.00,0.00,VWS V14.01,2013-01-10 22:41:00,
2013-01-10 17:46:00,31.9,26.4,30.51,NW,304,0.0,0.0,80,0.00,,BKN250,0.00,0.00,VWS V14.01,2013-01-10 22:46:00,
2013-01-10 17:51:00,31.9,26.7,30.51,NW,304,0.0,0.0,81,0.00,,BKN250,0.00,0.00,VWS V14.01,2013-01-10 22:51:00,
2013-01-10 17:56:00,31.5,26.6,30.51,NW,304,0.0,0.0,82,0.00,,BKN250,0.00,0.00,VWS V14.01,2013-01-10 22:56:00,
2013-01-10 18:01:00,33.8,24.7,30.50,West,270,0.1,0.0,69,0.00,BKN,OVC,0.00,0.0,WeatherDisplay:10.37,2013-01-10 23:01:00,
2013-01-10 18:06:00,31.3,26.8,30.51,NW,304,0.0,0.0,83,0.00,,BKN250,0.00,0.00,VWS V14.01,2013-01-10 23:06:00,
2013-01-10 18:11:00,31.1,26.8,30.51,NW,304,0.0,0.0,84,0.00,,BKN250,0.00,0.00,VWS V14.01,2013-01-10 23:11:00,
2013-01-10 18:16:00,33.2,24.5,30.49,West,270,0.0,0.0,70,0.00,BKN,OVC,0.00,0.0,WeatherDisplay:10.37,2013-01-10 23:16:00,
2013-01-10 18:21:00,30.7,26.7,30.51,NW,304,0.0,0.0,85,0.00,,BKN250,0.00,0.00,VWS V14.01,2013-01-10 23:21:00,
2013-01-10 18:26:00,30.6,26.6,30.50,NW,304,0.0,0.0,85,0.00,,BKN250,0.00,0.00,VWS V14.01,2013-01-10 23:26:00,
2013-01-10 18:31:00,32.5,24.8,30.49,West,270,0.0,0.0,73,0.00,BKN,OVC,0.00,0.0,WeatherDisplay:10.37,2013-01-10 23:31:00,
2013-01-10 18:36:00,30.4,27.0,30.50,NW,304,0.0,0.0,87,0.00,,BKN250,0.00,0.00,VWS V14.01,2013-01-10 23:36:00,
2013-01-10 18:41:00,32.1,24.7,30.49,West,270,0.0,0.0,74,0.00,BKN,OVC,0.00,0.0,WeatherDisplay:10.37,2013-01-10 23:41:00,
2013-01-10 18:46:00,30.3,26.6,30.50,NW,304,0.0,0.0,86,0.00,,BKN250,0.00,0.00,VWS V14.01,2013-01-10 23:46:00,
2013-01-10 18:51:00,31.6,24.6,30.49,West,270,0.0,0.0,75,0.00,BKN,OVC,0.00,0.0,WeatherDisplay:10.37,2013-01-10 23:51:00,
2013-01-10 18:56:00,30.1,26.7,30.50,NW,304,0.0,0.0,87,0.00,,BKN250,0.00,0.00,VWS V14.01,2013-01-10 23:56:00,
2013-01-10 19:01:00,30.2,26.8,30.50,NW,304,0.0,0.0,87,0.00,,BKN250,0.00,0.00,VWS V14.01,2013-01-11 00:01:00,
2013-01-10 19:06:00,30.3,26.9,30.50,NW,304,0.0,0.0,87,0.00,,BKN250,0.00,0.00,VWS V14.01,2013-01-11 00:06:00,
2013-01-10 19:11:00,31.1,24.7,30.48,West,270,0.0,0.0,77,0.00,BKN,OVC,0.00,0.0,WeatherDisplay:10.37,2013-01-11 00:11:00,
2013-01-10 19:16:00,30.2,26.8,30.50,NW,304,0.0,0.0,87,0.00,,BKN250,0.00,0.00,VWS V14.01,2013-01-11 00:16:00,
2013-01-10 19:21:00,30.8,24.7,30.47,West,270,0.0,0.0,78,0.00,BKN,OVC,0.00,0.0,WeatherDisplay:10.37,2013-01-11 00:21:00,
2013-01-10 19:26:00,30.2,27.1,30.49,NW,304,0.0,0.0,88,0.00,,BKN250,0.00,0.00,VWS V14.01,2013-01-11 00:26:00,
2013-01-10 19:31:00,30.7,25.0,30.48,West,270,0.2,2.3,79,0.00,BKN,OVC,0.00,0.0,WeatherDisplay:10.37,2013-01-11 00:31:00,
2013-01-10 19:36:00,30.0,26.9,30.49,NW,304,0.0,0.0,88,0.00,,BKN250,0.00,0.00,VWS V14.01,2013-01-11 00:36:00,
2013-01-10 19:41:00,30.6,24.9,30.48,West,270,0.0,0.0,79,0.00,BKN,OVC,0.00,0.0,WeatherDisplay:10.37,2013-01-11 00:41:00,
2013-01-10 19:46:00,29.9,26.8,30.49,NW,304,0.0,0.0,88,0.00,,BKN250,0.00,0.00,VWS V14.01,2013-01-11 00:46:00,
2013-01-10 19:51:00,30.5,24.8,30.47,West,270,0.0,0.0,79,0.00,BKN,OVC,0.00,0.0,WeatherDisplay:10.37,2013-01-11 00:51:00,
2013-01-10 19:56:00,29.8,27.0,30.49,NW,304,0.0,0.0,89,0.00,,BKN250,0.00,0.00,VWS V14.01,2013-01-11 00:56:00,
2013-01-10 20:01:00,29.7,26.9,30.49,NW,304,0.0,0.0,89,0.00,,BKN250,0.00,0.00,VWS V14.01,2013-01-11 01:01:00,
2013-01-10 20:06:00,29.6,26.8,30.48,NW,304,0.0,0.0,89,0.00,,BKN250,0.00,0.00,VWS V14.01,2013-01-11 01:06:00,
2013-01-10 20:11:00,30.2,25.1,30.47,West,270,0.0,0.0,81,0.00,BKN,OVC,0.00,0.0,WeatherDisplay:10.37,2013-01-11 01:11:00,
2013-01-10 20:16:00,29.9,27.1,30.49,NW,304,0.0,0.0,89,0.00,,BKN250,0.00,0.00,VWS V14.01,2013-01-11 01:16:00,
2013-01-10 20:21:00,29.8,26.7,30.48,NW,304,0.0,0.0,88,0.00,,BKN250,0.00,0.00,VWS V14.01,2013-01-11 01:21:00,
2013-01-10 20:26:00,29.5,26.7,30.48,NW,304,0.0,0.0,89,0.00,,BKN250,0.00,0.00,VWS V14.01,2013-01-11 01:26:00,
2013-01-10 20:31:00,30.0,24.9,30.46,West,270,0.0,1.1,81,0.00,BKN,OVC,0.00,0.0,WeatherDisplay:10.37,2013-01-11 01:31:00,
2013-01-10 20:36:00,30.0,24.9,30.46,West,270,0.0,0.0,81,0.00,BKN,OVC,0.00,0.0,WeatherDisplay:10.37,2013-01-11 01:36:00,
2013-01-10 20:41:00,29.4,26.6,30.48,NW,304,0.0,0.0,89,0.00,,OVC250,0.00,0.00,VWS V14.01,2013-01-11 01:41:00,
2013-01-10 20:46:00,29.6,27.0,30.48,NW,304,0.0,0.0,90,0.00,,OVC250,0.00,0.00,VWS V14.01,2013-01-11 01:46:00,
2013-01-10 20:51:00,29.8,27.0,30.48,NW,304,0.0,0.0,89,0.00,,OVC250,0.00,0.00,VWS V14.01,2013-01-11 01:51:00,
2013-01-10 20:56:00,29.8,27.0,30.47,NW,304,0.0,0.0,89,0.00,,OVC250,0.00,0.00,VWS V14.01,2013-01-11 01:56:00,
2013-01-10 21:01:00,30.1,25.0,30.46,West,270,0.0,0.0,81,0.00,BKN,OVC,0.00,0.0,WeatherDisplay:10.37,2013-01-11 02:01:00,
2013-01-10 21:06:00,29.7,26.9,30.47,NW,304,0.0,0.0,89,0.00,,OVC250,0.00,0.00,VWS V14.01,2013-01-11 02:06:00,
2013-01-10 21:11:00,29.6,26.8,30.47,NW,304,0.0,0.0,89,0.00,,OVC250,0.00,0.00,VWS V14.01,2013-01-11 02:11:00,
2013-01-10 21:16:00,29.7,27.1,30.46,NW,304,0.0,0.0,90,0.00,,OVC250,0.00,0.00,VWS V14.01,2013-01-11 02:16:00,
2013-01-10 21:21:00,30.0,25.2,30.44,West,270,0.3,2.3,82,0.00,BKN,OVC,0.00,0.0,WeatherDisplay:10.37,2013-01-11 02:21:00,
2013-01-10 21:26:00,30.5,27.6,30.46,NW,304,0.0,0.0,89,0.00,,OVC250,0.00,0.00,VWS V14.01,2013-01-11 02:26:00,
2013-01-10 21:31:00,30.4,25.6,30.44,West,270,0.9,2.3,82,0.00,BKN,OVC,0.00,0.0,WeatherDisplay:10.37,2013-01-11 02:31:00,
2013-01-10 21:36:00,30.9,27.5,30.46,NW,304,0.0,0.0,87,0.00,,OVC250,0.00,0.00,VWS V14.01,2013-01-11 02:36:00,
2013-01-10 21:41:00,30.7,25.9,30.45,West,270,0.0,0.0,82,0.00,BKN,OVC,0.00,0.0,WeatherDisplay:10.37,2013-01-11 02:41:00,
2013-01-10 21:46:00,30.4,27.3,30.46,NW,304,0.0,0.0,88,0.00,,OVC250,0.00,0.00,VWS V14.01,2013-01-11 02:46:00,
2013-01-10 21:51:00,30.2,27.4,30.45,NW,304,0.0,0.0,89,0.00,,OVC250,0.00,0.00,VWS V14.01,2013-01-11 02:51:00,
2013-01-10 21:56:00,30.5,27.6,30.44,NW,305,0.0,1.0,89,0.00,,OVC250,0.00,0.00,VWS V14.01,2013-01-11 02:56:00,
2013-01-10 22:01:00,30.6,27.5,30.44,NW,305,0.0,1.0,88,0.00,,OVC250,0.00,0.00,VWS V14.01,2013-01-11 03:01:00,
2013-01-10 22:06:00,31.3,28.2,30.45,North,355,0.0,1.0,88,0.00,,OVC250,0.00,0.00,VWS V14.01,2013-01-11 03:06:00,
2013-01-10 22:11:00,31.7,27.7,30.45,North,355,1.0,2.0,85,0.00,,OVC250,0.00,0.00,VWS V14.01,2013-01-11 03:11:00,
2013-01-10 22:16:00,31.6,27.6,30.44,North,355,1.0,2.0,85,0.00,,OVC250,0.00,0.00,VWS V14.01,2013-01-11 03:16:00,
2013-01-10 22:21:00,31.8,26.3,30.42,West,270,0.7,1.1,80,0.00,BKN,OVC,0.00,0.0,WeatherDisplay:10.37,2013-01-11 03:21:00,
2013-01-10 22:26:00,31.7,27.4,30.43,North,5,1.0,1.0,84,0.00,,OVC250,0.00,0.00,VWS V14.01,2013-01-11 03:26:00,
2013-01-10 22:31:00,31.6,27.3,30.43,ENE,72,2.0,3.0,84,0.00,,OVC250,0.00,0.00,VWS V14.01,2013-01-11 03:31:00,
2013-01-10 22:36:00,31.6,27.0,30.42,ENE,78,2.0,3.0,83,0.00,,OVC250,0.00,0.00,VWS V14.01,2013-01-11 03:36:00,
2013-01-10 22:41:00,31.9,25.8,30.40,West,270,1.8,2.3,78,0.00,BKN,OVC,0.00,0.0,WeatherDisplay:10.37,2013-01-11 03:41:00,
2013-01-10 22:46:00,31.4,27.1,30.41,ENE,78,2.0,2.0,84,0.00,,OVC250,0.00,0.00,VWS V14.01,2013-01-11 03:46:00,
2013-01-10 22:51:00,31.9,25.8,30.39,West,270,1.9,3.5,78,0.00,BKN,OVC,0.00,0.0,WeatherDisplay:10.37,2013-01-11 03:51:00,
2013-01-10 22:56:00,31.8,25.4,30.39,West,270,0.9,3.5,77,0.00,BKN,OVC,0.00,0.0,WeatherDisplay:10.37,2013-01-11 03:56:00,
2013-01-10 23:01:00,31.5,27.2,30.40,ENE,68,1.0,1.0,84,0.00,,OVC200,0.00,0.00,VWS V14.01,2013-01-11 04:01:00,
2013-01-10 23:06:00,31.7,25.6,30.38,West,270,0.0,0.0,78,0.00,BKN,OVC,0.00,0.0,WeatherDisplay:10.37,2013-01-11 04:06:00,
2013-01-10 23:11:00,31.7,25.6,30.38,West,270,0.0,1.1,78,0.00,BKN,OVC,0.00,0.0,WeatherDisplay:10.37,2013-01-11 04:11:00,
2013-01-10 23:16:00,31.6,27.0,30.40,ENE,68,1.0,1.0,83,0.00,,OVC200,0.00,0.00,VWS V14.01,2013-01-11 04:16:00,
2013-01-10 23:21:00,31.7,25.6,30.38,West,270,0.1,1.1,78,0.00,BKN,OVC,0.00,0.0,WeatherDisplay:10.37,2013-01-11 04:21:00,
2013-01-10 23:26:00,31.1,26.8,30.39,ENE,68,1.0,1.0,84,0.00,,OVC200,0.00,0.00,VWS V14.01,2013-01-11 04:26:00,
2013-01-10 23:31:00,31.0,27.0,30.39,ENE,68,1.0,1.0,85,0.00,,OVC200,0.00,0.00,VWS V14.01,2013-01-11 04:31:00,
2013-01-10 23:36:00,31.6,25.5,30.36,West,270,0.8,2.3,78,0.00,BKN,OVC,0.00,0.0,WeatherDisplay:10.37,2013-01-11 04:36:00,
2013-01-10 23:41:00,31.6,25.5,30.36,West,270,1.7,2.3,78,0.00,BKN,OVC,0.00,0.0,WeatherDisplay:10.37,2013-01-11 04:41:00,
2013-01-10 23:46:00,31.7,25.6,30.36,West,270,0.5,2.3,78,0.00,BKN,OVC,0.00,0.0,WeatherDisplay:10.37,2013-01-11 04:46:00,
2013-01-10 23:51:00,31.8,27.8,30.38,ENE,68,0.0,2.0,85,0.00,,OVC200,0.00,0.00,VWS V14.01,2013-01-11 04:51:00,
2013-01-10 23:56:00,32.0,25.9,30.35,West,270,1.4,2.3,78,0.00,BKN,OVC,0.00,0.0,WeatherDisplay:10.37,2013-01-11 04:56:00,